{"data":{"norad_id":63732,"intl_designator":"2025-088J","name":"KUIPER-00016","alt_names":[],"object_type":"PAYLOAD","status":"ACTIVE","operator":null,"country":"US","launch_date":"2025-04-28","launch_site_code":"AFETR","launch_vehicle":null,"mission":null,"orbit_class":"UNKNOWN","rcs_meters":null,"size_class":null,"mass_kg":null,"dimensions":null,"purposes":[],"wikipedia_slug":null,"has_3d_model":false,"image_url":null,"decayed_at":null,"tle_current":{"epoch":"2026-09-21T09:06:26.081856Z","epoch_age_seconds":128583,"freshness":"FRESH","line1":"1 63732U 25088J   26264.37946854  .00001710  00000+0  25326-3 0  9999","line2":"2 63732  51.9015 325.2307 0000367  81.8391 278.2613 14.79928736 76325","mean_motion":14.79928736,"eccentricity":3.67e-5,"inclination_deg":51.9015,"raan_deg":325.2307,"arg_perigee_deg":81.8391,"mean_anomaly_deg":278.2613,"bstar":0.00025326,"rev_number":7632,"period_min":97.301982519245,"perigee_km":629.2919075192,"apogee_km":629.80627167818,"semimajor_km":7007.6860895987,"source":"CELESTRAK","updated_at":"2026-09-22T09:00:29.317279Z"}}}